EW0609 Weather Reports


Display with metric or nautical units.
time (UTC)temp
F
wind
direction
speed
MPH
gust
MPH
rain 1hr
in
rain 24hr
in
rain mn
in
humidity
%
barometer
mb
20260509062837 64 102 3.0 12.0 0.00 0.00 0.00 41 1012.9
20260509062337 65 87 2.0 14.0 0.00 0.00 0.00 41 1012.8
20260509062225 65 114 5.0 14.0 0.00 0.00 0.00 41 1013.2
20260509061336 65 92 6.0 13.0 0.00 0.00 0.00 41 1013.0
20260509060836 64 86 3.0 7.0 0.00 0.00 0.00 41 1013.2
20260509060338 65 54 3.0 9.0 0.00 0.00 0.00 41 1013.0
20260509055838 65 94 4.0 9.0 0.00 0.00 0.00 40 1013.3
20260509055337 65 90 4.0 10.0 0.00 0.00 0.00 40 1013.2
20260509054837 65 106 5.0 10.0 0.00 0.00 0.00 39 1013.0
20260509054337 66 110 5.0 9.0 0.00 0.00 0.00 39 1013.2
20260509053837 66 109 4.0 9.0 0.00 0.00 0.00 39 1013.2
20260509053337 66 103 4.0 9.0 0.00 0.00 0.00 39 1013.0
20260509052837 66 99 6.0 9.0 0.00 0.00 0.00 39 1013.2
20260509052337 66 109 3.0 12.0 0.00 0.00 0.00 39 1013.2
20260509051841 66 93 3.0 12.0 0.00 0.00 0.00 38 1012.9
20260509051337 66 103 5.0 7.0 0.00 0.00 0.00 38 1013.4
20260509050838 66 128 4.0 7.0 0.00 0.00 0.00 39 1013.2
20260509050337 66 113 2.0 9.0 0.00 0.00 0.00 38 1013.0
20260509045838 67 109 5.0 9.0 0.00 0.00 0.00 38 1013.3
20260509045731 67 117 5.0 9.0 0.00 0.00 0.00 37 1013.2
20260509044837 67 106 4.0 7.0 0.00 0.00 0.00 37 1013.2
20260509044336 67 97 4.0 5.0 0.00 0.00 0.00 37 1013.3
20260509043836 68 134 2.0 5.0 0.00 0.00 0.00 37 1013.2
20260509043336 67 103 0.0 6.0 0.00 0.00 0.00 37 1013.3
20260509042838 67 106 3.0 6.0 0.00 0.00 0.00 37 1013.3
20260509042729 67 100 2.0 6.0 0.00 0.00 0.00 37 1013.2
20260509041837 68 107 3.0 6.0 0.00 0.00 0.00 37 1013.2
20260509041336 68 109 3.0 7.0 0.00 0.00 0.00 37 1013.2
20260509040836 68 110 4.0 7.0 0.00 0.00 0.00 36 1013.2
20260509040716 68 103 4.0 6.0 0.00 0.00 0.00 36 1013.2
20260509035836 68 107 3.0 5.0 0.00 0.00 0.00 37 1013.2
20260509035337 68 89 1.0 4.0 0.00 0.00 0.00 36 1013.0
20260509034837 69 93 2.0 3.0 0.00 0.00 0.00 36 1013.0
20260509034336 69 107 0.0 7.0 0.00 0.00 0.00 35 1012.9
20260509033836 69 87 2.0 7.0 0.00 0.00 0.00 35 1012.9
20260509033724 70 103 2.0 6.0 0.00 0.00 0.00 35 1012.9
20260509032837 70 97 3.0 6.0 0.00 0.00 0.00 34 1012.9
20260509032336 70 113 2.0 4.0 0.00 0.00 0.00 34 1012.8
20260509031836 70 110 1.0 4.0 0.00 0.00 0.00 34 1012.7
20260509031336 70 96 1.0 4.0 0.00 0.00 0.00 34 1012.6
20260509030836 70 68 0.0 5.0 0.00 0.00 0.00 34 1012.5
20260509030341 70 114 2.0 5.0 0.00 0.00 0.00 34 1012.6
20260509025836 70 103 1.0 3.0 0.00 0.00 0.00 33 1012.5
20260509025336 71 106 0.0 3.0 0.00 0.00 0.00 32 1012.4
20260509024836 71 100 1.0 3.0 0.00 0.00 0.00 32 1012.3
20260509024336 71 51 0.0 3.0 0.00 0.00 0.00 32 1012.4
20260509023837 71 111 0.0 3.0 0.00 0.00 0.00 31 1012.2
20260509023337 72 116 0.0 3.0 0.00 0.00 0.00 31 1012.0
20260509022837 72 97 1.0 3.0 0.00 0.00 0.00 31 1012.0
20260509022335 72 99 1.0 2.0 0.00 0.00 0.00 31 1011.9
20260509021835 72 23 0.0 4.0 0.00 0.00 0.00 31 1012.0
20260509021728 73 69 1.0 4.0 0.00 0.00 0.00 30 1011.8
20260509020836 73 90 0.0 2.0 0.00 0.00 0.00 30 1011.8
20260509020721 74 107 1.0 3.0 0.00 0.00 0.00 30 1011.6
20260509020230 74 21 1.0 3.0 0.00 0.00 0.00 30 1011.8
20260509015340 74 20 0.0 2.0 0.00 0.00 0.00 29 1011.7
20260509014836 74 0 0.0 3.0 0.00 0.00 0.00 29 1011.7
20260509014337 75 44 0.0 6.0 0.00 0.00 0.00 29 1011.7
20260509014220 75 27 2.0 6.0 0.00 0.00 0.00 29 1011.5
20260509013336 75 35 2.0 6.0 0.00 0.00 0.00 29 1011.5
20260509013226 76 31 3.0 11.0 0.00 0.00 0.00 29 1011.5
20260509012338 76 0 3.0 11.0 0.00 0.00 0.00 29 1011.4
20260509011838 76 16 3.0 9.0 0.00 0.00 0.00 28 1011.4
20260509011336 76 23 2.0 6.0 0.00 0.00 0.00 28 1011.4
20260509010836 76 44 2.0 10.0 0.00 0.00 0.00 28 1011.3
20260509010724 76 1 3.0 10.0 0.00 0.00 0.00 28 1011.4
20260509005836 77 41 6.0 10.0 0.00 0.00 0.00 28 1011.3
20260509005338 77 25 2.0 6.0 0.00 0.00 0.00 28 1011.1
20260509004836 77 0 2.0 10.0 0.00 0.00 0.00 27 1011.1
20260509004734 77 21 5.0 10.0 0.00 0.00 0.00 27 1011.0
20260509003839 78 73 4.0 10.0 0.00 0.00 0.00 27 1011.1
20260509003336 78 0 4.0 9.0 0.00 0.00 0.00 27 1011.0
20260509002836 78 0 3.0 11.0 0.00 0.00 0.00 26 1011.0
20260509002336 79 35 5.0 11.0 0.00 0.00 0.00 26 1011.0
20260509001837 79 10 3.0 11.0 0.00 0.00 0.00 25 1011.0
20260509001336 79 8 6.0 13.0 0.00 0.00 0.00 25 1011.0
20260509000835 79 0 6.0 13.0 0.00 0.00 0.00 25 1011.0
20260509000336 79 11 4.0 10.0 0.00 0.00 0.00 26 1010.9
20260509000220 80 62 4.0 10.0 0.00 0.00 0.00 25 1010.9
20260508235337 80 69 4.0 11.0 0.00 0.00 0.00 28 1010.9
20260508234837 80 25 4.0 12.0 0.00 0.00 0.00 25 1010.9
20260508234336 80 333 6.0 15.0 0.00 0.00 0.00 25 1010.8
20260508233836 81 18 4.0 15.0 0.00 0.00 0.00 25 1010.9
20260508233337 82 0 6.0 15.0 0.00 0.00 0.00 24 1010.9
20260508232836 82 350 7.0 16.0 0.00 0.00 0.00 25 1010.8
20260508232337 82 14 6.0 16.0 0.00 0.00 0.00 25 1010.8
20260508231836 81 0 6.0 14.0 0.00 0.00 0.00 25 1010.9
20260508231637 81 13 4.0 14.0 0.00 0.00 0.00 24 1010.8
20260508231505 81 0 7.0 14.0 0.00 0.00 0.00 25 1010.9
20260508230336 82 61 3.0 14.0 0.00 0.00 0.00 25 1010.9
20260508225837 82 17 4.0 13.0 0.00 0.00 0.00 24 1010.8
20260508225337 82 39 3.0 15.0 0.00 0.00 0.00 24 1010.8
20260508224838 83 90 6.0 17.0 0.00 0.00 0.00 24 1010.9
20260508224339 83 37 7.0 17.0 0.00 0.00 0.00 24 1010.8
20260508224226 83 14 4.0 16.0 0.00 0.00 0.00 24 1010.8
20260508223336 83 4 3.0 17.0 0.00 0.00 0.00 25 1010.8
20260508222837 83 30 9.0 17.0 0.00 0.00 0.00 25 1010.8
20260508222337 83 0 6.0 11.0 0.00 0.00 0.00 24 1010.8
20260508221836 83 351 6.0 15.0 0.00 0.00 0.00 24 1010.8
20260508221337 83 30 4.0 17.0 0.00 0.00 0.00 25 1010.7
20260508221118 83 0 11.0 19.0 0.00 0.00 0.00 24 1010.8
20260508221005 83 7 6.0 19.0 0.00 0.00 0.00 24 1010.8
20260508215835 83 16 6.0 16.0 0.00 0.00 0.00 24 1010.8
20260508215720 84 65 6.0 16.0 0.00 0.00 0.00 24 1010.7
20260508215232 84 0 7.0 15.0 0.00 0.00 0.00 25 1010.8
20260508214337 83 340 5.0 13.0 0.00 0.00 0.00 25 1010.8
20260508213838 83 116 6.0 14.0 0.00 0.00 0.00 24 1010.9
20260508213336 83 34 7.0 14.0 0.00 0.00 0.00 23 1011.0
20260508212838 84 32 3.0 14.0 0.00 0.00 0.00 23 1010.9
20260508212336 83 25 4.0 12.0 0.00 0.00 0.00 24 1010.9
20260508211836 84 52 3.0 15.0 0.00 0.00 0.00 23 1010.9
20260508211336 84 25 4.0 15.0 0.00 0.00 0.00 24 1011.0
20260508210836 85 51 5.0 18.0 0.00 0.00 0.00 24 1010.9
20260508210335 85 42 7.0 18.0 0.00 0.00 0.00 24 1010.9
20260508205836 85 0 8.0 19.0 0.00 0.00 0.00 22 1011.0
20260508205337 84 0 10.0 19.0 0.00 0.00 0.00 24 1011.1
20260508204837 84 54 4.0 18.0 0.00 0.00 0.00 23 1011.0
20260508204727 84 18 6.0 15.0 0.00 0.00 0.00 24 1011.1
20260508203837 85 49 6.0 15.0 0.00 0.00 0.00 23 1011.1
20260508203723 84 357 5.0 16.0 0.00 0.00 0.00 22 1011.0
20260508202835 85 331 5.0 17.0 0.00 0.00 0.00 23 1011.1
20260508202336 85 14 8.0 18.0 0.00 0.00 0.00 21 1011.3
20260508202228 84 0 6.0 18.0 0.00 0.00 0.00 22 1011.3
20260508201337 85 320 9.0 17.0 0.00 0.00 0.00 21 1011.3
20260508200835 85 0 7.0 17.0 0.00 0.00 0.00 21 1011.3
20260508200338 85 0 4.0 19.0 0.00 0.00 0.00 21 1011.3
20260508195836 85 18 6.0 21.0 0.00 0.00 0.00 24 1011.3
20260508195336 85 0 10.0 21.0 0.00 0.00 0.00 24 1011.3
20260508195223 85 0 4.0 14.0 0.00 0.00 0.00 24 1011.3
20260508194337 85 32 3.0 17.0 0.00 0.00 0.00 23 1011.3
20260508193836 85 14 7.0 17.0 0.00 0.00 0.00 23 1011.3
20260508193335 85 3 6.0 14.0 0.00 0.00 0.00 24 1011.1
20260508192837 84 41 4.0 16.0 0.00 0.00 0.00 23 1011.1
20260508192336 85 0 4.0 16.0 0.00 0.00 0.00 24 1011.3
20260508191837 85 343 6.0 19.0 0.00 0.00 0.00 25 1011.3
20260508191337 85 354 6.0 19.0 0.00 0.00 0.00 25 1011.3
20260508190835 84 327 3.0 11.0 0.00 0.00 0.00 27 1011.1
20260508190337 84 348 4.0 15.0 0.00 0.00 0.00 30 1011.3
20260508190225 84 336 7.0 15.0 0.00 0.00 0.00 30 1011.3
20260508185337 83 336 4.0 12.0 0.00 0.00 0.00 30 1011.4
20260508185218 83 357 5.0 12.0 0.00 0.00 0.00 28 1011.4
20260508184424 83 324 3.0 12.0 0.00 0.00 0.00 29 1011.5
20260508184002 83 14 6.0 11.0 0.00 0.00 0.00 28 1011.6
20260508182837 83 37 6.0 12.0 0.00 0.00 0.00 29 1011.6
20260508182337 82 52 3.0 12.0 0.00 0.00 0.00 29 1011.6
20260508182122 82 7 6.0 13.0 0.00 0.00 0.00 29 1011.6
20260508182009 82 337 4.0 13.0 0.00 0.00 0.00 28 1011.6
20260508180837 82 348 5.0 10.0 0.00 0.00 0.00 30 1011.6
20260508180337 82 0 4.0 10.0 0.00 0.00 0.00 33 1011.7
20260508175837 81 347 4.0 10.0 0.00 0.00 0.00 30 1011.7
20260508175337 80 312 4.0 9.0 0.00 0.00 0.00 31 1011.8
20260508174835 78 259 3.0 11.0 0.00 0.00 0.00 30 1011.7
20260508174335 80 307 6.0 11.0 0.00 0.00 0.00 31 1011.8
20260508173835 80 302 3.0 12.0 0.00 0.00 0.00 32 1011.8
20260508173336 79 286 6.0 12.0 0.00 0.00 0.00 28 1011.9
20260508172838 80 247 6.0 11.0 0.00 0.00 0.00 31 1011.8
20260508172338 80 340 5.0 11.0 0.00 0.00 0.00 31 1011.8
20260508171836 78 268 1.0 4.0 0.00 0.00 0.00 33 1011.9
20260508171720 78 4 1.0 10.0 0.00 0.00 0.00 30 1011.9
20260508171118 78 261 2.0 7.0 0.00 0.00 0.00 30 1012.0
20260508171003 78 306 4.0 10.0 0.00 0.00 0.00 32 1012.0
20260508165838 79 353 3.0 12.0 0.00 0.00 0.00 32 1012.0
20260508165336 77 10 7.0 12.0 0.00 0.00 0.00 34 1012.2
20260508164835 76 1 3.0 9.0 0.00 0.00 0.00 35 1012.3
20260508164335 76 345 2.0 9.0 0.00 0.00 0.00 34 1012.4
20260508163837 76 337 3.0 9.0 0.00 0.00 0.00 34 1012.4
20260508163335 76 254 2.0 7.0 0.00 0.00 0.00 32 1012.3
20260508162836 76 234 3.0 7.0 0.00 0.00 0.00 38 1012.3
20260508162335 75 188 3.0 7.0 0.00 0.00 0.00 37 1012.4
20260508161837 74 243 2.0 6.0 0.00 0.00 0.00 38 1012.3
20260508161336 75 323 2.0 6.0 0.00 0.00 0.00 38 1012.4
20260508160835 73 274 2.0 9.0 0.00 0.00 0.00 39 1012.4
20260508160336 73 233 2.0 9.0 0.00 0.00 0.00 41 1012.5
20260508155836 74 245 3.0 10.0 0.00 0.00 0.00 40 1012.4
20260508155336 73 272 3.0 11.0 0.00 0.00 0.00 41 1012.4
20260508154836 72 206 4.0 11.0 0.00 0.00 0.00 43 1012.5
20260508154336 71 257 5.0 12.0 0.00 0.00 0.00 44 1012.5
20260508153835 71 265 5.0 12.0 0.00 0.00 0.00 45 1012.6
20260508153334 71 199 4.0 9.0 0.00 0.00 0.00 48 1012.6
20260508152835 71 243 4.0 12.0 0.00 0.00 0.00 49 1012.6
20260508152355 69 207 6.0 11.0 0.00 0.00 0.00 51 1012.8
20260508152344 70 176 4.0 12.0 0.00 0.00 0.00 50 1012.8
20260508151504 69 271 5.0 13.0 0.00 0.00 0.00 54 1012.7
20260508150337 67 255 6.0 12.0 0.00 0.00 0.00 53 1012.8
20260508145835 68 240 6.0 12.0 0.00 0.00 0.00 55 1012.7
20260508145723 67 221 6.0 15.0 0.00 0.00 0.00 56 1012.8
20260508144836 66 238 6.0 15.0 0.00 0.00 0.00 57 1012.9
20260508144335 65 193 6.0 16.0 0.00 0.00 0.00 58 1012.8
20260508143836 65 204 5.0 16.0 0.00 0.00 0.00 60 1012.7
20260508143334 64 247 6.0 12.0 0.00 0.00 0.00 61 1012.8
20260508142834 64 224 6.0 10.0 0.00 0.00 0.00 61 1012.8
20260508142335 62 175 3.0 12.0 0.00 0.00 0.00 63 1012.8
20260508141837 62 223 4.0 12.0 0.00 0.00 0.00 64 1012.9
20260508141338 62 243 6.0 13.0 0.00 0.00 0.00 64 1012.9
20260508140837 62 245 6.0 13.0 0.00 0.00 0.00 64 1012.9
20260508140335 61 230 6.0 12.0 0.00 0.00 0.00 64 1012.7
20260508135836 61 226 5.0 13.0 0.00 0.00 0.00 66 1012.6
20260508135720 60 227 5.0 13.0 0.00 0.00 0.00 67 1012.7
20260508134835 59 206 5.0 14.0 0.00 0.00 0.00 66 1012.8
20260508134335 60 217 6.0 14.0 0.00 0.00 0.00 66 1012.9
20260508133836 59 241 5.0 12.0 0.00 0.00 0.00 67 1013.2
20260508133336 59 223 5.0 10.0 0.00 0.00 0.00 67 1013.3
20260508132836 59 200 5.0 12.0 0.00 0.00 0.00 67 1013.2
20260508132337 59 224 6.0 12.0 0.00 0.00 0.00 66 1012.9
20260508131835 59 217 6.0 12.0 0.00 0.00 0.00 66 1012.8
20260508131516 57 241 5.0 12.0 0.00 0.00 0.00 70 1012.6
20260508131510 58 227 6.0 12.0 0.00 0.00 0.00 69 1012.7
20260508131426 59 195 5.0 12.0 0.00 0.00 0.00 67 1012.6
20260508125835 57 240 5.0 14.0 0.00 0.00 0.00 70 1012.5
20260508125336 56 210 6.0 16.0 0.00 0.00 0.00 70 1012.5
20260508124835 56 209 5.0 16.0 0.00 0.00 0.00 70 1012.5
20260508124336 56 178 7.0 12.0 0.00 0.00 0.00 70 1012.5
20260508123836 56 288 5.0 11.0 0.00 0.00 0.00 70 1012.7
20260508123335 56 274 4.0 9.0 0.00 0.00 0.00 70 1012.6
20260508122835 56 224 4.0 11.0 0.00 0.00 0.00 70 1012.5
20260508122335 56 202 5.0 12.0 0.00 0.00 0.00 70 1012.4
20260508121835 56 209 5.0 12.0 0.00 0.00 0.00 70 1012.2
20260508121335 56 237 6.0 13.0 0.00 0.00 0.00 70 1012.2
20260508120836 56 210 4.0 14.0 0.00 0.00 0.00 69 1012.0
20260508120334 56 210 4.0 14.0 0.00 0.00 0.00 69 1012.0
20260508120108 56 230 6.0 13.0 0.00 0.00 0.00 69 1012.0
20260508115336 56 216 7.0 13.0 0.00 0.00 0.00 69 1012.2
20260508114835 56 244 6.0 14.0 0.00 0.00 0.00 69 1012.0
20260508114335 56 217 5.0 14.0 0.00 0.00 0.00 69 1012.0
20260508113836 56 209 7.0 15.0 0.00 0.00 0.00 69 1012.0
20260508113335 56 203 8.0 15.0 0.00 0.00 0.00 69 1012.0
20260508112835 56 238 6.0 16.0 0.00 0.00 0.00 69 1012.2
20260508112337 56 228 7.0 16.0 0.00 0.00 0.00 69 1012.2
20260508112223 56 217 6.0 14.0 0.00 0.00 0.00 69 1012.2
20260508111336 56 226 6.0 14.0 0.00 0.00 0.00 69 1012.0
20260508111224 56 221 6.0 14.0 0.00 0.00 0.00 68 1012.0
20260508110338 56 206 6.0 12.0 0.00 0.00 0.00 68 1012.0
20260508105835 56 248 5.0 12.0 0.00 0.00 0.00 68 1012.2
20260508105334 56 238 5.0 13.0 0.00 0.00 0.00 68 1012.0
20260508104836 56 221 6.0 19.0 0.00 0.00 0.00 68 1012.2
20260508104335 56 212 6.0 19.0 0.00 0.00 0.00 67 1012.2
20260508103835 56 220 6.0 16.0 0.00 0.00 0.00 67 1012.3
20260508103337 56 210 8.0 14.0 0.00 0.00 0.00 68 1012.3
20260508103217 56 254 8.0 14.0 0.00 0.00 0.00 67 1012.3
20260508102335 56 214 6.0 15.0 0.00 0.00 0.00 67 1012.5
20260508101837 56 197 6.0 15.0 0.00 0.00 0.00 67 1012.3
20260508101334 56 213 6.0 12.0 0.00 0.00 0.00 66 1012.4
20260508100836 57 219 5.0 16.0 0.00 0.00 0.00 66 1012.4
20260508100335 57 220 6.0 16.0 0.00 0.00 0.00 66 1012.4
20260508100228 57 238 6.0 15.0 0.00 0.00 0.00 66 1012.3
20260508095336 57 168 8.0 15.0 0.00 0.00 0.00 66 1012.5
20260508094835 57 219 7.0 15.0 0.00 0.00 0.00 65 1012.4
20260508094722 56 227 7.0 15.0 0.00 0.00 0.00 62 1012.4
20260508093835 57 268 6.0 13.0 0.00 0.00 0.00 62 1012.4
20260508093336 57 238 5.0 13.0 0.00 0.00 0.00 62 1012.5
20260508093229 57 204 6.0 13.0 0.00 0.00 0.00 62 1012.6
20260508092336 57 234 6.0 16.0 0.00 0.00 0.00 62 1012.5
20260508091836 57 202 7.0 16.0 0.00 0.00 0.00 62 1012.6
20260508091335 57 212 6.0 15.0 0.00 0.00 0.00 62 1012.6
20260508090838 57 207 7.0 15.0 0.00 0.00 0.00 62 1012.7
20260508090623 57 206 8.0 19.0 0.00 0.00 0.00 62 1012.7
20260508090506 57 245 7.0 15.0 0.00 0.00 0.00 62 1012.7
20260508085338 57 230 7.0 19.0 0.00 0.00 0.00 61 1012.7
20260508084838 57 190 11.0 18.0 0.00 0.00 0.00 61 1012.8
20260508084335 57 169 7.0 15.0 0.00 0.00 0.00 59 1012.7
20260508083835 57 183 6.0 13.0 0.00 0.00 0.00 59 1012.8
20260508083335 57 173 6.0 14.0 0.00 0.00 0.00 59 1012.7
20260508082836 57 180 5.0 14.0 0.00 0.00 0.00 59 1012.6
20260508082335 57 196 6.0 14.0 0.00 0.00 0.00 59 1012.7
20260508081835 57 214 4.0 14.0 0.00 0.00 0.00 58 1012.7
20260508081338 57 172 7.0 15.0 0.00 0.00 0.00 58 1012.7
20260508080834 57 200 5.0 15.0 0.00 0.00 0.00 57 1012.7
20260508080335 56 233 5.0 9.0 0.00 0.00 0.00 57 1012.8
20260508075836 56 175 4.0 7.0 0.00 0.00 0.00 56 1012.7
20260508075335 56 209 4.0 9.0 0.00 0.00 0.00 55 1012.8
20260508074836 56 233 4.0 9.0 0.00 0.00 0.00 54 1012.9
20260508074337 57 217 3.0 6.0 0.00 0.00 0.00 54 1012.8
20260508073836 57 173 3.0 5.0 0.00 0.00 0.00 53 1012.9
20260508073616 57 213 2.0 6.0 0.00 0.00 0.00 53 1013.0
20260508073504 56 206 3.0 6.0 0.00 0.00 0.00 53 1013.0
20260508072334 57 202 3.0 7.0 0.00 0.01 0.00 53 1013.0
20260508071834 57 157 3.0 7.0 0.00 0.01 0.00 52 1013.0
20260508071335 57 182 3.0 6.0 0.00 0.01 0.00 52 1013.2
20260508070835 57 210 3.0 6.0 0.00 0.01 0.00 52 1013.2
20260508070335 58 228 3.0 7.0 0.00 0.01 0.00 51 1013.2
20260508070224 58 212 4.0 7.0 0.00 0.01 0.00 51 1013.3
20260508065336 58 217 4.0 7.0 0.00 0.01 0.00 50 1013.3
20260508064835 58 189 3.0 9.0 0.00 0.01 0.00 50 1013.3
20260508064726 58 209 4.0 9.0 0.00 0.01 0.00 50 1013.3
20260508063834 59 196 4.0 9.0 0.00 0.01 0.00 49 1013.4
20260508063721 59 235 2.0 9.0 0.00 0.01 0.00 48 1013.4